カタログに戻る

PSLV DEB

運用中PO
NORAD 27153·DEBRIS·🇮🇳 India

打ち上げ Oct 22, 2001 から Satish Dhawan Space Centre

Loading…

次のパス (今後24時間)

TLE

最新Source: Space-Track

元期: Sep 14, 2026, 07:13 UTC

1 27153U 01049CZ  26257.30117065  .00287860  00000-0  10117-2 0  9990
2 27153  97.8161  15.8346 0003070 198.0364 162.0798 15.88470399345537

AllMySatでPSLV DEBをリアルタイム追跡

Download on the App Store